Time,TemperatureF,DewpointF,PressureIn,WindDirection,WindDirectionDegrees,WindSpeedMPH,WindSpeedGustMPH,Humidity,HourlyPrecipIn,Conditions,Clouds,dailyrainin,SoftwareType,DateUTC
2013-11-04 00:00:00,28.0,22.0,30.41,ENE,67,0.0,4.0,78,0.00,,,0.00,Weather View 32 v70,2013-11-04 05:00:00,
2013-11-04 00:01:00,28.0,22.0,30.41,ENE,67,0.0,4.0,78,0.00,,,0.00,Weather View 32 v70,2013-11-04 05:01:00,
2013-11-04 00:02:00,28.0,22.0,30.41,ENE,67,0.0,4.0,78,0.00,,,0.00,Weather View 32 v70,2013-11-04 05:02:00,
2013-11-04 00:07:00,28.0,22.0,30.41,NNE,22,0.0,4.0,78,0.00,,,0.00,Weather View 32 v70,2013-11-04 05:07:00,
2013-11-04 00:12:00,28.0,22.0,30.41,NNE,22,2.0,4.0,78,0.00,,,0.00,Weather View 32 v70,2013-11-04 05:12:00,
2013-11-04 00:17:00,28.0,22.6,30.42,NE,45,0.0,4.0,80,0.00,,,0.00,Weather View 32 v70,2013-11-04 05:17:00,
2013-11-04 00:22:00,28.0,22.6,30.42,NE,45,0.0,4.0,80,0.00,,,0.00,Weather View 32 v70,2013-11-04 05:22:00,
2013-11-04 00:27:00,28.0,22.6,30.42,NE,45,0.0,4.0,80,0.00,,,0.00,Weather View 32 v70,2013-11-04 05:27:00,
2013-11-04 00:32:00,27.0,21.9,30.42,NE,45,1.0,4.0,81,0.00,,,0.00,Weather View 32 v70,2013-11-04 05:32:00,
2013-11-04 00:37:00,27.0,21.9,30.43,NE,45,0.0,4.0,81,0.00,,,0.00,Weather View 32 v70,2013-11-04 05:37:00,
2013-11-04 00:42:00,27.0,21.9,30.43,NE,45,0.0,4.0,81,0.00,,,0.00,Weather View 32 v70,2013-11-04 05:42:00,
2013-11-04 00:47:00,27.0,21.9,30.44,NE,45,0.0,4.0,81,0.00,,,0.00,Weather View 32 v70,2013-11-04 05:47:00,
2013-11-04 00:52:00,27.0,22.2,30.44,NE,45,0.0,4.0,82,0.00,,,0.00,Weather View 32 v70,2013-11-04 05:52:00,
2013-11-04 00:57:00,27.0,22.5,30.44,NE,45,0.0,4.0,83,0.00,,,0.00,Weather View 32 v70,2013-11-04 05:57:00,
2013-11-04 01:02:00,26.0,21.5,30.44,NE,45,0.0,4.0,83,0.00,,,0.00,Weather View 32 v70,2013-11-04 06:02:00,
2013-11-04 01:07:00,26.0,21.8,30.44,NE,45,0.0,2.0,84,0.00,,,0.00,Weather View 32 v70,2013-11-04 06:07:00,
2013-11-04 01:12:00,26.0,22.4,30.45,NE,45,0.0,2.0,86,0.00,,,0.00,Weather View 32 v70,2013-11-04 06:12:00,
2013-11-04 01:17:00,25.0,22.0,30.45,NE,45,0.0,2.0,88,0.00,,,0.00,Weather View 32 v70,2013-11-04 06:17:00,
2013-11-04 01:22:00,25.0,22.0,30.45,NE,45,0.0,2.0,88,0.00,,,0.00,Weather View 32 v70,2013-11-04 06:22:00,
2013-11-04 01:27:00,24.0,21.0,30.46,NE,45,0.0,2.0,88,0.00,,,0.00,Weather View 32 v70,2013-11-04 06:27:00,
2013-11-04 01:32:00,24.0,21.0,30.46,NE,45,0.0,2.0,88,0.00,,,0.00,Weather View 32 v70,2013-11-04 06:32:00,
2013-11-04 01:37:00,24.0,21.2,30.46,NE,45,0.0,0.0,89,0.00,,,0.00,Weather View 32 v70,2013-11-04 06:37:00,
2013-11-04 01:42:00,24.0,21.2,30.46,NE,45,0.0,0.0,89,0.00,,,0.00,Weather View 32 v70,2013-11-04 06:42:00,
2013-11-04 01:47:00,24.0,21.5,30.47,NE,45,0.0,0.0,90,0.00,,,0.00,Weather View 32 v70,2013-11-04 06:47:00,
2013-11-04 01:52:00,24.0,21.8,30.47,NE,45,0.0,0.0,91,0.00,,,0.00,Weather View 32 v70,2013-11-04 06:52:00,
2013-11-04 01:57:00,24.0,21.8,30.47,NE,45,0.0,2.0,91,0.00,,,0.00,Weather View 32 v70,2013-11-04 06:57:00,
2013-11-04 02:02:00,24.0,21.8,30.47,NE,45,0.0,2.0,91,0.00,,,0.00,Weather View 32 v70,2013-11-04 07:02:00,
2013-11-04 02:07:00,24.0,21.8,30.47,NE,45,0.0,2.0,91,0.00,,,0.00,Weather View 32 v70,2013-11-04 07:07:00,
2013-11-04 02:12:00,24.0,21.8,30.47,NE,45,0.0,2.0,91,0.00,,,0.00,Weather View 32 v70,2013-11-04 07:12:00,
2013-11-04 02:17:00,25.0,22.7,30.47,NE,45,0.0,2.0,91,0.00,,,0.00,Weather View 32 v70,2013-11-04 07:17:00,
2013-11-04 02:22:00,25.0,23.0,30.47,NE,45,0.0,2.0,92,0.00,,,0.00,Weather View 32 v70,2013-11-04 07:22:00,
2013-11-04 02:27:00,25.0,23.3,30.48,NE,45,0.0,3.0,93,0.00,,,0.00,Weather View 32 v70,2013-11-04 07:27:00,
2013-11-04 02:32:00,25.0,23.5,30.48,NE,45,0.0,3.0,94,0.00,,,0.00,Weather View 32 v70,2013-11-04 07:32:00,
2013-11-04 02:37:00,24.0,22.3,30.48,NE,45,0.0,3.0,93,0.00,,,0.00,Weather View 32 v70,2013-11-04 07:37:00,
2013-11-04 02:42:00,24.0,22.3,30.48,NE,45,0.0,3.0,93,0.00,,,0.00,Weather View 32 v70,2013-11-04 07:42:00,
2013-11-04 02:47:00,24.0,22.3,30.49,NE,45,0.0,3.0,93,0.00,,,0.00,Weather View 32 v70,2013-11-04 07:47:00,
2013-11-04 02:52:00,23.0,21.3,30.49,NE,45,0.0,3.0,93,0.00,,,0.00,Weather View 32 v70,2013-11-04 07:52:00,
2013-11-04 02:57:00,23.0,21.5,30.49,NE,45,0.0,3.0,94,0.00,,,0.00,Weather View 32 v70,2013-11-04 07:57:00,
2013-11-04 03:02:00,23.0,21.5,30.49,NE,45,0.0,3.0,94,0.00,,,0.00,Weather View 32 v70,2013-11-04 08:02:00,
2013-11-04 03:07:00,23.0,21.5,30.49,NE,45,0.0,3.0,94,0.00,,,0.00,Weather View 32 v70,2013-11-04 08:07:00,
2013-11-04 03:12:00,24.0,22.3,30.50,NE,45,0.0,3.0,93,0.00,,,0.00,Weather View 32 v70,2013-11-04 08:12:00,
2013-11-04 03:17:00,24.0,22.3,30.50,NE,45,1.0,3.0,93,0.00,,,0.00,Weather View 32 v70,2013-11-04 08:17:00,
2013-11-04 03:22:00,24.0,22.3,30.50,NE,45,0.0,3.0,93,0.00,,,0.00,Weather View 32 v70,2013-11-04 08:22:00,
2013-11-04 03:27:00,25.0,22.7,30.50,NE,45,0.0,3.0,91,0.00,,,0.00,Weather View 32 v70,2013-11-04 08:27:00,
2013-11-04 03:32:00,25.0,22.7,30.50,NE,45,0.0,3.0,91,0.00,,,0.00,Weather View 32 v70,2013-11-04 08:32:00,
2013-11-04 03:37:00,25.0,22.5,30.50,NE,45,0.0,3.0,90,0.00,,,0.00,Weather View 32 v70,2013-11-04 08:37:00,
2013-11-04 03:42:00,25.0,21.7,30.50,ENE,67,1.0,4.0,87,0.00,,,0.00,Weather View 32 v70,2013-11-04 08:42:00,
2013-11-04 03:47:00,25.0,22.0,30.51,ENE,67,2.0,4.0,88,0.00,,,0.00,Weather View 32 v70,2013-11-04 08:47:00,
2013-11-04 03:52:00,25.0,22.0,30.51,ENE,67,1.0,4.0,88,0.00,,,0.00,Weather View 32 v70,2013-11-04 08:52:00,
2013-11-04 03:57:00,25.0,22.2,30.51,ENE,67,0.0,4.0,89,0.00,,,0.00,Weather View 32 v70,2013-11-04 08:57:00,
2013-11-04 04:02:00,25.0,21.7,30.51,ENE,67,1.0,4.0,87,0.00,,,0.00,Weather View 32 v70,2013-11-04 09:02:00,
2013-11-04 04:07:00,25.0,21.7,30.51,ENE,67,0.0,4.0,87,0.00,,,0.00,Weather View 32 v70,2013-11-04 09:07:00,
2013-11-04 04:12:00,25.0,21.7,30.51,ENE,67,0.0,4.0,87,0.00,,,0.00,Weather View 32 v70,2013-11-04 09:12:00,
2013-11-04 04:17:00,25.0,22.0,30.51,ENE,67,0.0,4.0,88,0.00,,,0.00,Weather View 32 v70,2013-11-04 09:17:00,
2013-11-04 04:22:00,25.0,22.0,30.51,ENE,67,0.0,4.0,88,0.00,,,0.00,Weather View 32 v70,2013-11-04 09:22:00,
2013-11-04 04:27:00,25.0,22.2,30.52,ENE,67,0.0,4.0,89,0.00,,,0.00,Weather View 32 v70,2013-11-04 09:27:00,
2013-11-04 04:32:00,25.0,22.0,30.52,ENE,67,0.0,4.0,88,0.00,,,0.00,Weather View 32 v70,2013-11-04 09:32:00,
2013-11-04 04:37:00,24.0,21.0,30.52,West,270,1.0,4.0,88,0.00,,,0.00,Weather View 32 v70,2013-11-04 09:37:00,
2013-11-04 04:42:00,24.0,21.2,30.53,WNW,292,0.0,4.0,89,0.00,,,0.00,Weather View 32 v70,2013-11-04 09:42:00,
2013-11-04 04:47:00,24.0,21.2,30.53,North,360,0.0,4.0,89,0.00,,,0.00,Weather View 32 v70,2013-11-04 09:47:00,
2013-11-04 04:52:00,24.0,21.2,30.53,North,360,0.0,4.0,89,0.00,,,0.00,Weather View 32 v70,2013-11-04 09:52:00,
2013-11-04 04:57:00,24.0,21.2,30.53,North,360,0.0,4.0,89,0.00,,,0.00,Weather View 32 v70,2013-11-04 09:57:00,
2013-11-04 05:02:00,24.0,21.2,30.54,North,360,0.0,4.0,89,0.00,,,0.00,Weather View 32 v70,2013-11-04 10:02:00,
2013-11-04 05:07:00,24.0,21.5,30.54,North,360,0.0,4.0,90,0.00,,,0.00,Weather View 32 v70,2013-11-04 10:07:00,
2013-11-04 05:12:00,24.0,21.5,30.54,North,360,0.0,4.0,90,0.00,,,0.00,Weather View 32 v70,2013-11-04 10:12:00,
2013-11-04 05:17:00,24.0,21.8,30.54,North,360,0.0,4.0,91,0.00,,,0.00,Weather View 32 v70,2013-11-04 10:17:00,
2013-11-04 05:22:00,23.0,20.8,30.55,North,360,0.0,4.0,91,0.00,,,0.00,Weather View 32 v70,2013-11-04 10:22:00,
2013-11-04 05:27:00,23.0,20.8,30.55,North,360,0.0,2.0,91,0.00,,,0.00,Weather View 32 v70,2013-11-04 10:27:00,
2013-11-04 05:32:00,23.0,21.0,30.55,North,360,0.0,2.0,92,0.00,,,0.00,Weather View 32 v70,2013-11-04 10:32:00,
2013-11-04 05:37:00,23.0,20.8,30.55,North,360,0.0,2.0,91,0.00,,,0.00,Weather View 32 v70,2013-11-04 10:37:00,
2013-11-04 05:42:00,24.0,21.8,30.55,North,360,0.0,1.0,91,0.00,,,0.00,Weather View 32 v70,2013-11-04 10:42:00,
2013-11-04 05:47:00,24.0,21.8,30.56,North,360,0.0,1.0,91,0.00,,,0.00,Weather View 32 v70,2013-11-04 10:47:00,
2013-11-04 05:52:00,24.0,21.8,30.56,North,360,0.0,1.0,91,0.00,,,0.00,Weather View 32 v70,2013-11-04 10:52:00,
2013-11-04 05:57:00,24.0,21.8,30.57,North,360,0.0,1.0,91,0.00,,,0.00,Weather View 32 v70,2013-11-04 10:57:00,
2013-11-04 06:02:00,24.0,21.8,30.57,North,360,0.0,1.0,91,0.00,,,0.00,Weather View 32 v70,2013-11-04 11:02:00,
2013-11-04 06:07:00,24.0,21.8,30.57,North,360,0.0,1.0,91,0.00,,,0.00,Weather View 32 v70,2013-11-04 11:07:00,
2013-11-04 06:12:00,23.0,20.8,30.57,North,360,0.0,1.0,91,0.00,,,0.00,Weather View 32 v70,2013-11-04 11:12:00,
2013-11-04 06:14:00,23.0,20.8,30.57,North,360,0.0,1.0,91,0.00,,,0.00,Weather View 32 v70,2013-11-04 11:14:00,
2013-11-04 06:19:00,23.0,20.8,30.57,North,360,0.0,1.0,91,0.00,,,0.00,Weather View 32 v70,2013-11-04 11:19:00,
2013-11-04 06:22:00,23.0,21.0,30.57,North,360,0.0,1.0,92,0.00,,,0.00,Weather View 32 v70,2013-11-04 11:22:00,
2013-11-04 06:27:00,23.0,21.0,30.57,North,360,0.0,1.0,92,0.00,,,0.00,Weather View 32 v70,2013-11-04 11:27:00,
2013-11-04 06:32:00,23.0,21.0,30.58,North,360,0.0,1.0,92,0.00,,,0.00,Weather View 32 v70,2013-11-04 11:32:00,
2013-11-04 06:37:00,23.0,21.5,30.58,North,360,0.0,1.0,94,0.00,,,0.00,Weather View 32 v70,2013-11-04 11:37:00,
2013-11-04 06:42:00,23.0,21.5,30.58,North,360,0.0,1.0,94,0.00,,,0.00,Weather View 32 v70,2013-11-04 11:42:00,
2013-11-04 06:47:00,22.0,20.5,30.58,North,360,0.0,1.0,94,0.00,,,0.00,Weather View 32 v70,2013-11-04 11:47:00,
2013-11-04 06:52:00,22.0,20.5,30.58,North,360,0.0,1.0,94,0.00,,,0.00,Weather View 32 v70,2013-11-04 11:52:00,
2013-11-04 06:57:00,22.0,20.8,30.59,North,360,0.0,1.0,95,0.00,,,0.00,Weather View 32 v70,2013-11-04 11:57:00,
2013-11-04 07:02:00,22.0,20.8,30.59,North,360,0.0,0.0,95,0.00,,,0.00,Weather View 32 v70,2013-11-04 12:02:00,
2013-11-04 07:07:00,22.0,20.8,30.59,North,360,0.0,0.0,95,0.00,,,0.00,Weather View 32 v70,2013-11-04 12:07:00,
2013-11-04 07:12:00,23.0,21.5,30.59,North,360,0.0,0.0,94,0.00,,,0.00,Weather View 32 v70,2013-11-04 12:12:00,
2013-11-04 07:17:00,23.0,21.3,30.59,North,360,0.0,0.0,93,0.00,,,0.00,Weather View 32 v70,2013-11-04 12:17:00,
2013-11-04 07:22:00,24.0,22.3,30.60,North,360,0.0,0.0,93,0.00,,,0.00,Weather View 32 v70,2013-11-04 12:22:00,
2013-11-04 07:28:00,25.0,22.0,30.60,NE,45,0.0,6.0,88,0.00,,,0.00,Weather View 32 v70,2013-11-04 12:28:00,
2013-11-04 07:33:00,26.0,21.5,30.59,NE,45,2.0,6.0,83,0.00,,,0.00,Weather View 32 v70,2013-11-04 12:33:00,
2013-11-04 07:38:00,28.0,22.0,30.60,NE,45,2.0,6.0,78,0.00,,,0.00,Weather View 32 v70,2013-11-04 12:38:00,
2013-11-04 07:43:00,30.0,22.1,30.60,NE,45,4.0,6.0,72,0.00,,,0.00,Weather View 32 v70,2013-11-04 12:43:00,
2013-11-04 07:48:00,31.0,21.0,30.61,NE,45,5.0,6.0,66,0.00,,,0.00,Weather View 32 v70,2013-11-04 12:48:00,
2013-11-04 07:53:00,32.0,21.2,30.62,ENE,67,4.0,7.0,64,0.00,,,0.00,Weather View 32 v70,2013-11-04 12:53:00,
2013-11-04 07:58:00,32.0,20.8,30.62,ENE,67,6.0,9.0,63,0.00,,,0.00,Weather View 32 v70,2013-11-04 12:58:00,
2013-11-04 08:03:00,33.0,20.6,30.63,NE,45,4.0,9.0,60,0.00,,,0.00,Weather View 32 v70,2013-11-04 13:03:00,
2013-11-04 08:08:00,33.0,21.0,30.63,ENE,67,2.0,9.0,61,0.00,,,0.00,Weather View 32 v70,2013-11-04 13:08:00,
2013-11-04 08:13:00,33.0,20.2,30.63,NE,45,5.0,9.0,59,0.00,,,0.00,Weather View 32 v70,2013-11-04 13:13:00,
2013-11-04 08:18:00,34.0,21.2,30.64,NE,45,4.0,9.0,59,0.00,,,0.00,Weather View 32 v70,2013-11-04 13:18:00,
2013-11-04 08:23:00,34.0,20.8,30.64,NE,45,4.0,9.0,58,0.00,,,0.00,Weather View 32 v70,2013-11-04 13:23:00,
2013-11-04 08:28:00,34.0,20.4,30.64,NE,45,3.0,9.0,57,0.00,,,0.00,Weather View 32 v70,2013-11-04 13:28:00,
2013-11-04 08:33:00,34.0,20.4,30.64,NE,45,1.0,9.0,57,0.00,,,0.00,Weather View 32 v70,2013-11-04 13:33:00,
2013-11-04 08:38:00,35.0,20.5,30.64,NE,45,5.0,9.0,55,0.00,,,0.00,Weather View 32 v70,2013-11-04 13:38:00,
2013-11-04 08:43:00,36.0,21.0,30.64,NE,45,5.0,9.0,54,0.00,,,0.00,Weather View 32 v70,2013-11-04 13:43:00,
2013-11-04 08:48:00,36.0,20.1,30.64,NE,45,4.0,9.0,52,0.00,,,0.00,Weather View 32 v70,2013-11-04 13:48:00,
2013-11-04 08:53:00,36.0,19.6,30.64,ENE,67,3.0,9.0,51,0.00,,,0.00,Weather View 32 v70,2013-11-04 13:53:00,
2013-11-04 08:58:00,37.0,20.1,30.64,NE,45,7.0,9.0,50,0.00,,,0.00,Weather View 32 v70,2013-11-04 13:58:00,
2013-11-04 09:03:00,37.0,19.6,30.64,ENE,67,2.0,9.0,49,0.00,,,0.00,Weather View 32 v70,2013-11-04 14:03:00,
2013-11-04 09:08:00,37.0,19.1,30.65,ENE,67,4.0,9.0,48,0.00,,,0.00,Weather View 32 v70,2013-11-04 14:08:00,
2013-11-04 09:13:00,37.0,18.6,30.65,NE,45,6.0,9.0,47,0.00,,,0.00,Weather View 32 v70,2013-11-04 14:13:00,
2013-11-04 09:18:00,37.0,19.1,30.65,NE,45,6.0,9.0,48,0.00,,,0.00,Weather View 32 v70,2013-11-04 14:18:00,
2013-11-04 09:23:00,38.0,18.5,30.65,NE,45,5.0,9.0,45,0.00,,,0.00,Weather View 32 v70,2013-11-04 14:23:00,
2013-11-04 09:28:00,37.0,18.1,30.66,East,90,2.0,10.0,46,0.00,,,0.00,Weather View 32 v70,2013-11-04 14:28:00,
2013-11-04 09:33:00,38.0,19.0,30.66,NE,45,1.0,10.0,46,0.00,,,0.00,Weather View 32 v70,2013-11-04 14:33:00,
2013-11-04 09:38:00,38.0,18.0,30.66,SE,135,0.0,10.0,44,0.00,,,0.00,Weather View 32 v70,2013-11-04 14:38:00,
2013-11-04 09:43:00,39.0,18.9,30.66,NE,45,6.0,10.0,44,0.00,,,0.00,Weather View 32 v70,2013-11-04 14:43:00,
2013-11-04 09:48:00,39.0,19.9,30.66,NE,45,6.0,10.0,46,0.00,,,0.00,Weather View 32 v70,2013-11-04 14:48:00,
2013-11-04 09:53:00,39.0,17.8,30.66,NE,45,7.0,10.0,42,0.00,,,0.00,Weather View 32 v70,2013-11-04 14:53:00,
2013-11-04 09:58:00,39.0,16.1,30.65,ENE,67,8.0,10.0,39,0.00,,,0.00,Weather View 32 v70,2013-11-04 14:58:00,
2013-11-04 10:03:00,39.0,17.3,30.66,ENE,67,2.0,10.0,41,0.00,,,0.00,Weather View 32 v70,2013-11-04 15:03:00,
2013-11-04 10:08:00,39.0,17.3,30.66,NNE,22,6.0,10.0,41,0.00,,,0.00,Weather View 32 v70,2013-11-04 15:08:00,
2013-11-04 10:13:00,39.0,17.3,30.66,ENE,67,3.0,10.0,41,0.00,,,0.00,Weather View 32 v70,2013-11-04 15:13:00,
2013-11-04 10:19:00,40.0,17.0,30.66,ESE,112,3.0,10.0,39,0.00,,,0.00,Weather View 32 v70,2013-11-04 15:19:00,
2013-11-04 10:24:00,40.0,18.7,30.66,ESE,112,3.0,10.0,42,0.00,,,0.00,Weather View 32 v70,2013-11-04 15:24:00,
2013-11-04 10:29:00,41.0,16.7,30.66,ENE,67,6.0,10.0,37,0.00,,,0.00,Weather View 32 v70,2013-11-04 15:29:00,
2013-11-04 10:34:00,41.0,17.9,30.66,NE,45,6.0,10.0,39,0.00,,,0.00,Weather View 32 v70,2013-11-04 15:34:00,
2013-11-04 10:39:00,41.0,17.9,30.67,ENE,67,4.0,10.0,39,0.00,,,0.00,Weather View 32 v70,2013-11-04 15:39:00,
2013-11-04 10:44:00,41.0,18.5,30.67,NE,45,3.0,10.0,40,0.00,,,0.00,Weather View 32 v70,2013-11-04 15:44:00,
2013-11-04 10:49:00,41.0,18.5,30.67,NNW,337,2.0,10.0,40,0.00,,,0.00,Weather View 32 v70,2013-11-04 15:49:00,
2013-11-04 10:54:00,41.0,16.7,30.66,NE,45,6.0,10.0,37,0.00,,,0.00,Weather View 32 v70,2013-11-04 15:54:00,
2013-11-04 10:59:00,41.0,17.9,30.66,NE,45,6.0,10.0,39,0.00,,,0.00,Weather View 32 v70,2013-11-04 15:59:00,
2013-11-04 11:04:00,41.0,16.7,30.67,ENE,67,4.0,10.0,37,0.00,,,0.00,Weather View 32 v70,2013-11-04 16:04:00,
2013-11-04 11:09:00,41.0,17.3,30.67,ENE,67,3.0,10.0,38,0.00,,,0.00,Weather View 32 v70,2013-11-04 16:09:00,
2013-11-04 11:14:00,42.0,15.6,30.67,NE,45,5.0,10.0,34,0.00,,,0.00,Weather View 32 v70,2013-11-04 16:14:00,
2013-11-04 11:19:00,42.0,15.6,30.67,West,270,4.0,10.0,34,0.00,,,0.00,Weather View 32 v70,2013-11-04 16:19:00,
2013-11-04 11:24:00,42.0,15.6,30.67,ENE,67,5.0,10.0,34,0.00,,,0.00,Weather View 32 v70,2013-11-04 16:24:00,
2013-11-04 11:29:00,43.0,17.8,30.67,WSW,247,0.0,10.0,36,0.00,,,0.00,Weather View 32 v70,2013-11-04 16:29:00,
2013-11-04 11:34:00,44.0,16.7,30.68,ENE,67,5.0,10.0,33,0.00,,,0.00,Weather View 32 v70,2013-11-04 16:34:00,
2013-11-04 11:39:00,43.0,16.5,30.68,NE,45,6.0,10.0,34,0.00,,,0.00,Weather View 32 v70,2013-11-04 16:39:00,
2013-11-04 11:44:00,42.0,16.9,30.68,NE,45,3.0,10.0,36,0.00,,,0.00,Weather View 32 v70,2013-11-04 16:44:00,
2013-11-04 11:49:00,41.0,15.4,30.68,ENE,67,2.0,11.0,35,0.00,,,0.00,Weather View 32 v70,2013-11-04 16:49:00,
2013-11-04 11:54:00,42.0,18.2,30.67,NE,45,1.0,11.0,38,0.00,,,0.00,Weather View 32 v70,2013-11-04 16:54:00,
2013-11-04 11:59:00,43.0,18.5,30.67,SSE,157,0.0,11.0,37,0.00,,,0.00,Weather View 32 v70,2013-11-04 16:59:00,
2013-11-04 12:04:00,43.0,17.2,30.67,NNW,337,1.0,11.0,35,0.00,,,0.00,Weather View 32 v70,2013-11-04 17:04:00,
2013-11-04 12:09:00,44.0,16.7,30.67,ENE,67,3.0,11.0,33,0.00,,,0.00,Weather View 32 v70,2013-11-04 17:09:00,
2013-11-04 12:14:00,43.0,17.2,30.67,NE,45,5.0,11.0,35,0.00,,,0.00,Weather View 32 v70,2013-11-04 17:14:00,
2013-11-04 12:19:00,43.0,16.5,30.67,ENE,67,5.0,11.0,34,0.00,,,0.00,Weather View 32 v70,2013-11-04 17:19:00,
2013-11-04 12:24:00,42.0,14.9,30.66,NE,45,6.0,11.0,33,0.00,,,0.00,Weather View 32 v70,2013-11-04 17:24:00,
2013-11-04 12:29:00,42.0,16.3,30.66,ENE,67,0.0,11.0,35,0.00,,,0.00,Weather View 32 v70,2013-11-04 17:29:00,
2013-11-04 12:34:00,43.0,16.5,30.66,ENE,67,4.0,11.0,34,0.00,,,0.00,Weather View 32 v70,2013-11-04 17:34:00,
2013-11-04 12:39:00,44.0,18.1,30.66,NE,45,4.0,11.0,35,0.00,,,0.00,Weather View 32 v70,2013-11-04 17:39:00,
2013-11-04 12:44:00,43.0,15.8,30.66,SE,135,1.0,11.0,33,0.00,,,0.00,Weather View 32 v70,2013-11-04 17:44:00,
2013-11-04 12:49:00,44.0,17.4,30.65,NE,45,4.0,9.0,34,0.00,,,0.00,Weather View 32 v70,2013-11-04 17:49:00,
2013-11-04 12:54:00,43.0,17.2,30.65,NE,45,1.0,9.0,35,0.00,,,0.00,Weather View 32 v70,2013-11-04 17:54:00,
2013-11-04 12:59:00,43.0,15.8,30.66,SSW,202,0.0,9.0,33,0.00,,,0.00,Weather View 32 v70,2013-11-04 17:59:00,
2013-11-04 13:05:00,44.0,16.0,30.65,NE,45,2.0,9.0,32,0.00,,,0.00,Weather View 32 v70,2013-11-04 18:05:00,
2013-11-04 13:10:00,44.0,18.1,30.66,NE,45,4.0,10.0,35,0.00,,,0.00,Weather View 32 v70,2013-11-04 18:10:00,
2013-11-04 13:15:00,44.0,16.7,30.65,ENE,67,2.0,10.0,33,0.00,,,0.00,Weather View 32 v70,2013-11-04 18:15:00,
2013-11-04 13:20:00,45.0,17.6,30.66,NE,45,3.0,10.0,33,0.00,,,0.00,Weather View 32 v70,2013-11-04 18:20:00,
2013-11-04 13:25:00,45.0,15.4,30.66,WNW,292,2.0,10.0,30,0.00,,,0.00,Weather View 32 v70,2013-11-04 18:25:00,
2013-11-04 13:30:00,45.0,16.1,30.66,NE,45,0.0,10.0,31,0.00,,,0.00,Weather View 32 v70,2013-11-04 18:30:00,
2013-11-04 13:35:00,45.0,16.9,30.66,NE,45,5.0,10.0,32,0.00,,,0.00,Weather View 32 v70,2013-11-04 18:35:00,
2013-11-04 13:40:00,45.0,16.9,30.66,NE,45,5.0,10.0,32,0.00,,,0.00,Weather View 32 v70,2013-11-04 18:40:00,
2013-11-04 13:45:00,44.0,17.4,30.66,East,90,0.0,10.0,34,0.00,,,0.00,Weather View 32 v70,2013-11-04 18:45:00,
2013-11-04 13:50:00,44.0,16.0,30.65,West,270,1.0,10.0,32,0.00,,,0.00,Weather View 32 v70,2013-11-04 18:50:00,
2013-11-04 13:55:00,43.0,16.5,30.65,NE,45,6.0,10.0,34,0.00,,,0.00,Weather View 32 v70,2013-11-04 18:55:00,
2013-11-04 14:00:00,42.0,15.6,30.65,NE,45,6.0,10.0,34,0.00,,,0.00,Weather View 32 v70,2013-11-04 19:00:00,
2013-11-04 14:05:00,42.0,14.2,30.65,NE,45,0.0,10.0,32,0.00,,,0.00,Weather View 32 v70,2013-11-04 19:05:00,
2013-11-04 14:10:00,42.0,15.6,30.65,NW,315,0.0,7.0,34,0.00,,,0.00,Weather View 32 v70,2013-11-04 19:10:00,
2013-11-04 14:15:00,42.0,15.6,30.65,West,270,0.0,7.0,34,0.00,,,0.00,Weather View 32 v70,2013-11-04 19:15:00,
2013-11-04 14:20:00,42.0,14.9,30.65,NE,45,5.0,9.0,33,0.00,,,0.00,Weather View 32 v70,2013-11-04 19:20:00,
2013-11-04 14:25:00,42.0,15.6,30.65,NE,45,5.0,9.0,34,0.00,,,0.00,Weather View 32 v70,2013-11-04 19:25:00,
2013-11-04 14:30:00,41.0,16.1,30.65,SSE,157,1.0,9.0,36,0.00,,,0.00,Weather View 32 v70,2013-11-04 19:30:00,
2013-11-04 14:35:00,41.0,14.7,30.65,SE,135,0.0,9.0,34,0.00,,,0.00,Weather View 32 v70,2013-11-04 19:35:00,
2013-11-04 14:40:00,41.0,15.4,30.65,NNE,22,0.0,9.0,35,0.00,,,0.00,Weather View 32 v70,2013-11-04 19:40:00,
2013-11-04 14:45:00,41.0,15.4,30.65,NE,45,5.0,9.0,35,0.00,,,0.00,Weather View 32 v70,2013-11-04 19:45:00,
2013-11-04 14:50:00,41.0,14.1,30.65,WSW,247,3.0,9.0,33,0.00,,,0.00,Weather View 32 v70,2013-11-04 19:50:00,
2013-11-04 14:55:00,41.0,14.7,30.65,NE,45,2.0,9.0,34,0.00,,,0.00,Weather View 32 v70,2013-11-04 19:55:00,
2013-11-04 15:00:00,40.0,15.8,30.65,ESE,112,0.0,9.0,37,0.00,,,0.00,Weather View 32 v70,2013-11-04 20:00:00,
2013-11-04 15:05:00,40.0,13.9,30.65,NE,45,2.0,9.0,34,0.00,,,0.00,Weather View 32 v70,2013-11-04 20:05:00,
2013-11-04 15:10:00,40.0,15.2,30.65,North,360,0.0,9.0,36,0.00,,,0.00,Weather View 32 v70,2013-11-04 20:10:00,
2013-11-04 15:15:00,40.0,15.8,30.65,NE,45,2.0,9.0,37,0.00,,,0.00,Weather View 32 v70,2013-11-04 20:15:00,
2013-11-04 15:20:00,40.0,15.2,30.65,ENE,67,3.0,8.0,36,0.00,,,0.00,Weather View 32 v70,2013-11-04 20:20:00,
2013-11-04 15:25:00,40.0,15.8,30.65,NE,45,0.0,7.0,37,0.00,,,0.00,Weather View 32 v70,2013-11-04 20:25:00,
2013-11-04 15:30:00,40.0,15.2,30.65,ENE,67,3.0,7.0,36,0.00,,,0.00,Weather View 32 v70,2013-11-04 20:30:00,
2013-11-04 15:35:00,40.0,14.5,30.65,NE,45,2.0,7.0,35,0.00,,,0.00,Weather View 32 v70,2013-11-04 20:35:00,
2013-11-04 15:40:00,39.0,13.6,30.65,NNE,22,0.0,6.0,35,0.00,,,0.00,Weather View 32 v70,2013-11-04 20:40:00,
2013-11-04 15:45:00,39.0,14.9,30.65,NNE,22,0.0,6.0,37,0.00,,,0.00,Weather View 32 v70,2013-11-04 20:45:00,
2013-11-04 15:50:00,39.0,15.5,30.66,WNW,292,0.0,6.0,38,0.00,,,0.00,Weather View 32 v70,2013-11-04 20:50:00,
2013-11-04 15:55:00,38.0,16.9,30.66,WNW,292,0.0,6.0,42,0.00,,,0.00,Weather View 32 v70,2013-11-04 20:55:00,
2013-11-04 16:00:00,38.0,15.8,30.66,WNW,292,0.0,6.0,40,0.00,,,0.00,Weather View 32 v70,2013-11-04 21:00:00,
2013-11-04 16:05:00,37.0,16.0,30.66,WNW,292,0.0,6.0,42,0.00,,,0.00,Weather View 32 v70,2013-11-04 21:05:00,
2013-11-04 16:10:00,37.0,16.6,30.66,WNW,292,0.0,5.0,43,0.00,,,0.00,Weather View 32 v70,2013-11-04 21:10:00,
2013-11-04 16:15:00,37.0,17.6,30.66,WNW,292,0.0,5.0,45,0.00,,,0.00,Weather View 32 v70,2013-11-04 21:15:00,
2013-11-04 16:20:00,36.0,17.2,30.66,WNW,292,0.0,5.0,46,0.00,,,0.00,Weather View 32 v70,2013-11-04 21:20:00,
2013-11-04 16:25:00,36.0,18.7,30.66,WNW,292,0.0,4.0,49,0.00,,,0.00,Weather View 32 v70,2013-11-04 21:25:00,
2013-11-04 16:30:00,36.0,18.7,30.66,WNW,292,0.0,4.0,49,0.00,,,0.00,Weather View 32 v70,2013-11-04 21:30:00,
2013-11-04 16:35:00,35.0,17.8,30.66,WNW,292,0.0,4.0,49,0.00,,,0.00,Weather View 32 v70,2013-11-04 21:35:00,
2013-11-04 16:40:00,34.0,16.8,30.66,WNW,292,0.0,2.0,49,0.00,,,0.00,Weather View 32 v70,2013-11-04 21:40:00,
2013-11-04 16:45:00,34.0,21.6,30.66,WNW,292,0.0,1.0,60,0.00,,,0.00,Weather View 32 v70,2013-11-04 21:45:00,
2013-11-04 16:50:00,33.0,19.4,30.66,WNW,292,0.0,0.0,57,0.00,,,0.00,Weather View 32 v70,2013-11-04 21:50:00,
2013-11-04 16:55:00,33.0,18.6,30.66,WNW,292,0.0,0.0,55,0.00,,,0.00,Weather View 32 v70,2013-11-04 21:55:00,
2013-11-04 17:00:00,32.0,18.5,30.66,WNW,292,0.0,0.0,57,0.00,,,0.00,Weather View 32 v70,2013-11-04 22:00:00,
2013-11-04 17:05:00,32.0,20.8,30.66,WNW,292,1.0,2.0,63,0.00,,,0.00,Weather View 32 v70,2013-11-04 22:05:00,
2013-11-04 17:10:00,32.0,20.8,30.66,WNW,292,0.0,2.0,63,0.00,,,0.00,Weather View 32 v70,2013-11-04 22:10:00,
2013-11-04 17:15:00,31.0,20.6,30.66,WNW,292,0.0,2.0,65,0.00,,,0.00,Weather View 32 v70,2013-11-04 22:15:00,
2013-11-04 17:20:00,31.0,20.6,30.66,WNW,292,0.0,2.0,65,0.00,,,0.00,Weather View 32 v70,2013-11-04 22:20:00,
2013-11-04 17:25:00,31.0,22.0,30.66,WNW,292,0.0,2.0,69,0.00,,,0.00,Weather View 32 v70,2013-11-04 22:25:00,
2013-11-04 17:30:00,30.0,23.0,30.66,WNW,292,0.0,2.0,75,0.00,,,0.00,Weather View 32 v70,2013-11-04 22:30:00,
2013-11-04 17:35:00,30.0,22.4,30.66,WNW,292,0.0,2.0,73,0.00,,,0.00,Weather View 32 v70,2013-11-04 22:35:00,
2013-11-04 17:40:00,30.0,22.1,30.66,WNW,292,0.0,2.0,72,0.00,,,0.00,Weather View 32 v70,2013-11-04 22:40:00,
2013-11-04 17:45:00,29.0,22.7,30.66,WNW,292,0.0,2.0,77,0.00,,,0.00,Weather View 32 v70,2013-11-04 22:45:00,
2013-11-04 17:50:00,29.0,22.7,30.66,WNW,292,0.0,2.0,77,0.00,,,0.00,Weather View 32 v70,2013-11-04 22:50:00,
2013-11-04 17:55:00,29.0,23.3,30.66,WNW,292,0.0,2.0,79,0.00,,,0.00,Weather View 32 v70,2013-11-04 22:55:00,
2013-11-04 18:00:00,29.0,22.7,30.66,WNW,292,0.0,2.0,77,0.00,,,0.00,Weather View 32 v70,2013-11-04 23:00:00,
2013-11-04 18:05:00,28.0,21.7,30.67,WNW,292,0.0,2.0,77,0.00,,,0.00,Weather View 32 v70,2013-11-04 23:05:00,
2013-11-04 18:10:00,28.0,22.6,30.67,WNW,292,0.0,2.0,80,0.00,,,0.00,Weather View 32 v70,2013-11-04 23:10:00,
2013-11-04 18:15:00,28.0,24.4,30.67,WNW,292,0.0,2.0,86,0.00,,,0.00,Weather View 32 v70,2013-11-04 23:15:00,
2013-11-04 18:20:00,28.0,24.1,30.67,WNW,292,0.0,2.0,85,0.00,,,0.00,Weather View 32 v70,2013-11-04 23:20:00,
2013-11-04 18:25:00,28.0,24.4,30.67,WNW,292,0.0,2.0,86,0.00,,,0.00,Weather View 32 v70,2013-11-04 23:25:00,
2013-11-04 18:30:00,27.0,23.6,30.67,WNW,292,0.0,2.0,87,0.00,,,0.00,Weather View 32 v70,2013-11-04 23:30:00,
2013-11-04 18:35:00,27.0,23.6,30.67,WNW,292,0.0,2.0,87,0.00,,,0.00,Weather View 32 v70,2013-11-04 23:35:00,
2013-11-04 18:40:00,27.0,22.8,30.67,WNW,292,0.0,2.0,84,0.00,,,0.00,Weather View 32 v70,2013-11-04 23:40:00,
2013-11-04 18:45:00,27.0,23.6,30.67,WNW,292,0.0,2.0,87,0.00,,,0.00,Weather View 32 v70,2013-11-04 23:45:00,
2013-11-04 18:50:00,27.0,23.6,30.67,WNW,292,0.0,0.0,87,0.00,,,0.00,Weather View 32 v70,2013-11-04 23:50:00,
2013-11-04 18:55:00,27.0,23.6,30.67,WNW,292,0.0,0.0,87,0.00,,,0.00,Weather View 32 v70,2013-11-04 23:55:00,
2013-11-04 19:00:00,27.0,23.6,30.67,WNW,292,0.0,0.0,87,0.00,,,0.00,Weather View 32 v70,2013-11-05 00:00:00,
2013-11-04 19:05:00,27.0,23.9,30.67,WNW,292,0.0,0.0,88,0.00,,,0.00,Weather View 32 v70,2013-11-05 00:05:00,
2013-11-04 19:10:00,26.0,23.2,30.67,WNW,292,0.0,0.0,89,0.00,,,0.00,Weather View 32 v70,2013-11-05 00:10:00,
2013-11-04 19:15:00,26.0,23.7,30.67,WNW,292,0.0,0.0,91,0.00,,,0.00,Weather View 32 v70,2013-11-05 00:15:00,
2013-11-04 19:20:00,26.0,23.5,30.67,WNW,292,0.0,0.0,90,0.00,,,0.00,Weather View 32 v70,2013-11-05 00:20:00,
2013-11-04 19:25:00,26.0,23.5,30.67,WNW,292,0.0,0.0,90,0.00,,,0.00,Weather View 32 v70,2013-11-05 00:25:00,
2013-11-04 19:30:00,26.0,23.7,30.67,WNW,292,0.0,0.0,91,0.00,,,0.00,Weather View 32 v70,2013-11-05 00:30:00,
2013-11-04 19:36:00,26.0,23.7,30.67,WNW,292,0.0,0.0,91,0.00,,,0.00,Weather View 32 v70,2013-11-05 00:36:00,
2013-11-04 19:41:00,25.0,22.7,30.68,WNW,292,0.0,0.0,91,0.00,,,0.00,Weather View 32 v70,2013-11-05 00:41:00,
2013-11-04 19:46:00,25.0,22.5,30.67,WNW,292,0.0,0.0,90,0.00,,,0.00,Weather View 32 v70,2013-11-05 00:46:00,
2013-11-04 19:51:00,25.0,21.4,30.67,WNW,292,0.0,0.0,86,0.00,,,0.00,Weather View 32 v70,2013-11-05 00:51:00,
2013-11-04 19:56:00,25.0,21.4,30.67,WNW,292,0.0,0.0,86,0.00,,,0.00,Weather View 32 v70,2013-11-05 00:56:00,
2013-11-04 20:01:00,25.0,21.4,30.68,WNW,292,0.0,0.0,86,0.00,,,0.00,Weather View 32 v70,2013-11-05 01:01:00,
2013-11-04 20:06:00,24.0,18.7,30.68,WNW,292,0.0,0.0,80,0.00,,,0.00,Weather View 32 v70,2013-11-05 01:06:00,
2013-11-04 20:11:00,24.0,18.4,30.68,WNW,292,0.0,0.0,79,0.00,,,0.00,Weather View 32 v70,2013-11-05 01:11:00,
2013-11-04 20:16:00,24.0,18.1,30.68,WNW,292,0.0,0.0,78,0.00,,,0.00,Weather View 32 v70,2013-11-05 01:16:00,
2013-11-04 20:21:00,24.0,16.9,30.68,WNW,292,0.0,0.0,74,0.00,,,0.00,Weather View 32 v70,2013-11-05 01:21:00,
2013-11-04 20:26:00,24.0,16.0,30.68,WNW,292,0.0,0.0,71,0.00,,,0.00,Weather View 32 v70,2013-11-05 01:26:00,
2013-11-04 20:31:00,24.0,16.6,30.68,WNW,292,0.0,0.0,73,0.00,,,0.00,Weather View 32 v70,2013-11-05 01:31:00,
2013-11-04 20:36:00,24.0,15.0,30.68,WNW,292,0.0,0.0,68,0.00,,,0.00,Weather View 32 v70,2013-11-05 01:36:00,
2013-11-04 20:41:00,24.0,14.6,30.68,WNW,292,0.0,0.0,67,0.00,,,0.00,Weather View 32 v70,2013-11-05 01:41:00,
2013-11-04 20:46:00,24.0,15.6,30.68,WNW,292,0.0,0.0,70,0.00,,,0.00,Weather View 32 v70,2013-11-05 01:46:00,
2013-11-04 20:51:00,24.0,15.3,30.68,WNW,292,0.0,0.0,69,0.00,,,0.00,Weather View 32 v70,2013-11-05 01:51:00,
2013-11-04 20:56:00,24.0,13.6,30.68,WNW,292,0.0,0.0,64,0.00,,,0.00,Weather View 32 v70,2013-11-05 01:56:00,
2013-11-04 21:01:00,23.0,14.0,30.68,WNW,292,0.0,0.0,68,0.00,,,0.00,Weather View 32 v70,2013-11-05 02:01:00,
2013-11-04 21:06:00,23.0,14.7,30.68,WNW,292,0.0,0.0,70,0.00,,,0.00,Weather View 32 v70,2013-11-05 02:06:00,
2013-11-04 21:11:00,23.0,11.6,30.68,WNW,292,0.0,0.0,61,0.00,,,0.00,Weather View 32 v70,2013-11-05 02:11:00,
2013-11-04 21:16:00,23.0,12.6,30.68,WNW,292,0.0,0.0,64,0.00,,,0.00,Weather View 32 v70,2013-11-05 02:16:00,
2013-11-04 21:21:00,23.0,12.3,30.68,WNW,292,0.0,0.0,63,0.00,,,0.00,Weather View 32 v70,2013-11-05 02:21:00,
2013-11-04 21:26:00,23.0,12.6,30.68,WNW,292,0.0,0.0,64,0.00,,,0.00,Weather View 32 v70,2013-11-05 02:26:00,
2013-11-04 21:31:00,23.0,8.4,30.68,WNW,292,0.0,0.0,53,0.00,,,0.00,Weather View 32 v70,2013-11-05 02:31:00,
2013-11-04 21:36:00,23.0,6.2,30.68,WNW,292,0.0,0.0,48,0.00,,,0.00,Weather View 32 v70,2013-11-05 02:36:00,
2013-11-04 21:41:00,23.0,6.7,30.68,WNW,292,0.0,0.0,49,0.00,,,0.00,Weather View 32 v70,2013-11-05 02:41:00,
2013-11-04 21:46:00,23.0,9.2,30.68,WNW,292,0.0,0.0,55,0.00,,,0.00,Weather View 32 v70,2013-11-05 02:46:00,
2013-11-04 21:51:00,23.0,7.6,30.67,WNW,292,0.0,0.0,51,0.00,,,0.00,Weather View 32 v70,2013-11-05 02:51:00,
2013-11-04 21:56:00,23.0,3.8,30.67,WNW,292,0.0,0.0,43,0.00,,,0.00,Weather View 32 v70,2013-11-05 02:56:00,
2013-11-04 22:01:00,23.0,9.2,30.67,WNW,292,0.0,0.0,55,0.00,,,0.00,Weather View 32 v70,2013-11-05 03:01:00,
2013-11-04 22:06:00,22.0,4.4,30.67,WNW,292,0.0,0.0,46,0.00,,,0.00,Weather View 32 v70,2013-11-05 03:06:00,
2013-11-04 22:11:00,22.0,3.9,30.68,WNW,292,0.0,0.0,45,0.00,,,0.00,Weather View 32 v70,2013-11-05 03:11:00,
2013-11-04 22:16:00,22.0,8.7,30.68,WNW,292,0.0,0.0,56,0.00,,,0.00,Weather View 32 v70,2013-11-05 03:16:00,
2013-11-04 22:21:00,22.0,4.4,30.68,WNW,292,0.0,0.0,46,0.00,,,0.00,Weather View 32 v70,2013-11-05 03:21:00,
2013-11-04 22:26:00,22.0,6.6,30.67,WNW,292,0.0,0.0,51,0.00,,,0.00,Weather View 32 v70,2013-11-05 03:26:00,
2013-11-04 22:31:00,22.0,3.4,30.68,WNW,292,0.0,0.0,44,0.00,,,0.00,Weather View 32 v70,2013-11-05 03:31:00,
2013-11-04 22:36:00,22.0,0.8,30.67,WNW,292,0.0,0.0,39,0.00,,,0.00,Weather View 32 v70,2013-11-05 03:36:00,
2013-11-04 22:41:00,22.0,1.9,30.68,WNW,292,0.0,0.0,41,0.00,,,0.00,Weather View 32 v70,2013-11-05 03:41:00,
2013-11-04 22:46:00,22.0,3.9,30.67,WNW,292,0.0,0.0,45,0.00,,,0.00,Weather View 32 v70,2013-11-05 03:46:00,
2013-11-04 22:51:00,22.0,4.4,30.67,WNW,292,0.0,0.0,46,0.00,,,0.00,Weather View 32 v70,2013-11-05 03:51:00,
2013-11-04 22:56:00,22.0,3.9,30.67,WNW,292,0.0,0.0,45,0.00,,,0.00,Weather View 32 v70,2013-11-05 03:56:00,
2013-11-04 23:01:00,21.0,-1.2,30.68,WNW,292,0.0,0.0,37,0.00,,,0.00,Weather View 32 v70,2013-11-05 04:01:00,
2013-11-04 23:06:00,21.0,-0.6,30.68,WNW,292,0.0,0.0,38,0.00,,,0.00,Weather View 32 v70,2013-11-05 04:06:00,
2013-11-04 23:11:00,21.0,2.5,30.68,WNW,292,0.0,0.0,44,0.00,,,0.00,Weather View 32 v70,2013-11-05 04:11:00,
2013-11-04 23:16:00,21.0,4.8,30.68,WNW,292,0.0,0.0,49,0.00,,,0.00,Weather View 32 v70,2013-11-05 04:16:00,
2013-11-04 23:21:00,21.0,3.5,30.68,WNW,292,0.0,0.0,46,0.00,,,0.00,Weather View 32 v70,2013-11-05 04:21:00,
2013-11-04 23:26:00,21.0,-2.4,30.68,WNW,292,0.0,0.0,35,0.00,,,0.00,Weather View 32 v70,2013-11-05 04:26:00,
2013-11-04 23:31:00,21.0,-3.6,30.69,WNW,292,0.0,0.0,33,0.00,,,0.00,Weather View 32 v70,2013-11-05 04:31:00,
2013-11-04 23:36:00,21.0,-0.1,30.69,WNW,292,0.0,0.0,39,0.00,,,0.00,Weather View 32 v70,2013-11-05 04:36:00,
2013-11-04 23:41:00,21.0,-4.9,30.69,WNW,292,0.0,0.0,31,0.00,,,0.00,Weather View 32 v70,2013-11-05 04:41:00,
2013-11-04 23:46:00,21.0,1.0,30.69,WNW,292,0.0,0.0,41,0.00,,,0.00,Weather View 32 v70,2013-11-05 04:46:00,
2013-11-04 23:51:00,21.0,-0.6,30.69,WNW,292,0.0,0.0,38,0.00,,,0.00,Weather View 32 v70,2013-11-05 04:51:00,
2013-11-04 23:56:00,21.0,-7.0,30.69,WNW,292,0.0,0.0,28,0.00,,,0.00,Weather View 32 v70,2013-11-05 04:56:00,